Regional Weather Roundup
Issued by NWS Midland/Odessa, TX

Skip options and go directly to product.
Home | Oldest Version | Next Version | Current Version | All | Text Only | Save Text | Print | Product List | Glossary On

Skip product version selection by date and time.   
006
ASUS44 KMAF 240901
RWRMAF
MIDLAND AREA WEATHER ROUNDUP
NATIONAL WEATHER SERVICE MIDLAND TX
400 AM CDT TUE MAY 24 2016

...IN SOUTHWEST TEXAS AND SOUTHEAST NEW MEXICO...

CITY           SKY/WX    TMP DP  RH WIND       PRES   REMARKS
ALPINE         PTCLDY    65  58  75 W12       30.01R
ANDREWS        CLOUDY    72  67  85 S12G21    29.89R
ARTESIA        CLEAR     59  23  25 SW8       29.86S
BIG SPRING     CLOUDY    70  67  90 S12       29.89R
CARLSBAD       CLEAR     64  51  62 S8        29.85S
DRYDEN         NOT AVBL
FORT STOCKTON  CLEAR     72  65  78 S15       29.85R
GUAD PASS      NOT AVBL
HOBBS          CLEAR     66  66 100 S12       29.90S
MARFA          CLOUDY    55  52  89 N7        30.01S
MIDLAND AIRPK  CLOUDY    76  67  73 S21       29.88S
MIDLAND INTL   CLOUDY    76  67  73 S18G25    29.87S
ODESSA         CLOUDY    75  67  76 S18       29.88R
PECOS          CLEAR     70  60  72 E10       29.81F
PRESIDIO       FAIR      75  59  57 CALM      29.87R
SEMINOLE       CLOUDY    69  63  80 SE7       29.90S
SNYDER           N/A     73  70  92 S10       29.87S
WINK           CLEAR     72  67  84 MISG      29.84R
$$
...OTHER STATIONS IN TEXAS...

CITY           SKY/WX    TMP DP  RH WIND       PRES   REMARKS
ABILENE        CLEAR     73  70  90 S15G23    29.85R
AMARILLO       CLEAR     64  62  93 S17       29.86S
AUSTIN         CLOUDY    75  73  93 SE9       29.88F
BROWNSVILLE    CLOUDY    80  78  94 S5        29.87R
CORPUS CHRISTI CLOUDY    79  76  90 SE6       29.85F
DALLAS FTW     MOCLDY    76  70  82 S18       29.87R
DEL RIO        CLOUDY    78  73  84 SE10      29.81S
EL PASO        CLEAR     76  18  11 W12       29.91R
HOUSTON INT    MOCLDY    73  72  96 CALM      29.93F
LUBBOCK        PTCLDY    69  66  90 S13       29.87S
SAN ANGELO     CLOUDY    76  70  82 S9        29.85S
SAN ANTONIO    CLOUDY    74  72  93 SE8       29.87F
WACO           CLOUDY    75  70  84 S16       29.90R
WICHITA FALLS  NOT AVBL
$$
...OTHER LOCATIONS IN NEW MEXICO...

CITY           SKY/WX    TMP DP  RH WIND       PRES   REMARKS
ALAMAGORDO     CLEAR     64  18  16 S10       29.92S
ALBUQUERQUE    CLEAR     59  17  19 S7        29.95R
CANNON AFB     CLEAR     57  39  51 SW13      29.89R
CLOVIS         CLEAR     61  52  72 S12       29.90R
HOLLOMAN AFB   CLEAR     62  19  19 S13       29.90R
ROSWELL        CLEAR     59  28  30 S8        29.86R
RUIDOSO          N/A     54  14  20 SW12      30.06S
SANTA FE       CLEAR     51  23  33 E8        29.99R
TRUTH OR CONSE CLEAR     60  23  24 W6        29.93R
TUCUMCARI      CLEAR     55  33  43 SW10      29.81S
$$

USA.gov is the U.S. government's official web portal to all federal, state and local government web resources and services.